Location: Arthez
(43.0833°N, 0.2500°W)
Time: 19:46:23
(UTC+00:00)

CZ-4 R/B - Pass Details

Date: 23 October 2021
Orbit: 530 x 595 km, 97.8° (Epoch: 06 December)

Event Time Altitude Azimuth Distance (km) Brightness Sun altitude
Exits shadow 18:01:14 - 137° (SE) 2,540 4.3 -10.8°
Reaches altitude 10° 18:03:04 10° 127° (SE) 1,855 3.6 -11.2°
Maximum altitude 18:06:29 27° 68° (ENE) 1,108 2.3 -11.8°
Drops below altitude 10° 18:09:58 10° 10° (N) 1,900 3.9 -12.4°
Sets 18:12:22 0° 359° (N) 2,815 4.9 -12.9°
